Simultaneous Nadir Overpasses (SNOs) Predictions

Prediction of SNOs between GOES-15 and METOP-C Satellite Orbit:

Table of predicted SNOs for the next 14.0 days since TLE Epoch: 3/7/2025
Index Date Time (GOES-15) GOES-15 Lat,Lon METOP-C Lat,Lon Distance(km) Time Diff (sec)
1 03/08/2025 17:34:51 0.04, 61.29 -0.39, 59.42 213.38 80
2 03/09/2025 17:11:33 0.04, 61.29 0.74, 64.40 355.27 80
3 03/11/2025 05:30:25 -0.05, 61.33 0.27, 59.84 169.88 80
4 03/12/2025 05:12:25 -0.04, 61.33 -0.80, 64.84 399.53 80
5 03/13/2025 17:31:28 0.05, 61.27 -0.17, 60.22 119.42 80
6 03/14/2025 17:08:08 0.04, 61.28 0.91, 65.22 449.40 80
7 03/16/2025 05:27:00 -0.05, 61.33 0.10, 60.65 76.46 80
8 03/17/2025 05:09:01 -0.04, 61.32 -0.98, 65.65 492.61 80
9 03/18/2025 17:28:03 0.06, 61.27 0.03, 61.03 26.64 80
10 03/21/2025 05:26:16 -0.07, 61.35 -0.12, 61.46 14.00 80
